Weather History for KSZL - October, 2011

Change the Weather History Date:

Friday, October 21, 2011

  Actual Average Record
Temperature  
Mean Temperature 48 °F -  
Max Temperature 67 °F 64 °F 80 °F (2001)
Min Temperature 29 °F 45 °F 29 °F (2011)
Degree Days  
Heating Degree Days 17    
Moisture  
Dew Point 32 °F    
Average Humidity 58    
Maximum Humidity 92    
Minimum Humidity 28    
Precipitation  
Precipitation 0.00 in - - ()
Sea Level Pressure  
Sea Level Pressure 30.14 in    
Wind  
Wind Speed 4 mph (SSW)    
Max Wind Speed 12 mph    
Max Gust Speed -    
Visibility 10 miles    
Events      
Averages and records for this station are not official NWS values.
T = Trace of Precipitation, MM = Missing Value Source: NWS Daily Summary

Daily Weather History Graph

Daily Weather History Graph

Search for Another Location

Airport or City:

Trip Planner

Search our weather history database for the weather conditions in past years. The results will help you decide how hot, cold, wet, or windy it might be!

Date:

Astronomy

Oct. 21, 2011 Rise Set
Actual Time 7:29 AM CDT 6:27 PM CDT
Civil Twilight 7:02 AM CDT 6:54 PM CDT
Nautical Twilight 6:31 AM CDT 7:25 PM CDT
Astronomical Twilight 6:00 AM CDT 7:56 PM CDT
Moon 1:23 AM CDT (10/21) 3:09 PM CDT (10/21)
Length of Visible Light 11h 52m
Length of Day
10h 58m
Waning Crescent, 33% of the Moon is Illuminated
Oct 21
Waning Crescent
Oct 26
New
Nov 2
First Quarter
Nov 10
Full
Nov 18
Last Quarter

Hourly Weather History & Observations

Time (CDT) Temp. Windchill Dew Point Humidity Pressure Visibility Wind Dir Wind Speed Gust Speed Precip Events Conditions
12:55 AM 36.7 °F 34.1 °F 29.3 °F 75% 30.12 in 10.0 mi WSW 3.5 mph - N/A   Clear
1:55 AM 37.0 °F - 28.9 °F 73% 30.12 in 10.0 mi Calm Calm - N/A   Clear
2:55 AM 35.8 °F - 29.3 °F 77% 30.13 in 10.0 mi Calm Calm - N/A   Clear
3:55 AM 32.4 °F 29.1 °F 28.0 °F 84% 30.13 in 10.0 mi SSW 3.5 mph - N/A   Clear
4:55 AM 31.1 °F 27.7 °F 27.9 °F 88% 30.14 in 10.0 mi SSW 3.5 mph - N/A   Clear
5:55 AM 30.2 °F 26.7 °F 27.5 °F 90% 30.16 in 10.0 mi SW 3.5 mph - N/A   Clear
6:55 AM 29.3 °F 25.6 °F 27.0 °F 91% 30.18 in 10.0 mi SSW 3.5 mph - N/A   Clear
7:55 AM 29.8 °F 26.3 °F 27.9 °F 92% 30.19 in 10.0 mi SSW 3.5 mph - N/A   Clear
8:55 AM 35.4 °F 31.5 °F 33.3 °F 92% 30.20 in 10.0 mi SSW 4.6 mph - N/A   Clear
9:55 AM 48.2 °F - 31.8 °F 53% 30.21 in 10.0 mi SW 5.8 mph - N/A   Clear
10:55 AM 53.6 °F - 32.0 °F 44% 30.20 in 10.0 mi SSW 6.9 mph - N/A   Clear
11:55 AM 57.7 °F - 31.5 °F 37% 30.19 in 10.0 mi Variable 5.8 mph - N/A   Clear
12:55 PM 61.9 °F - 31.1 °F 31% 30.17 in 10.0 mi SW 5.8 mph - N/A   Clear
1:55 PM 64.9 °F - 31.8 °F 29% 30.14 in 10.0 mi SW 8.1 mph - N/A   Clear
2:55 PM 66.6 °F - 32.9 °F 29% 30.12 in 10.0 mi SW 9.2 mph - N/A   Clear
3:55 PM 67.6 °F - 32.9 °F 28% 30.10 in 10.0 mi SW 11.5 mph - N/A   Clear
4:55 PM 67.1 °F - 33.3 °F 29% 30.09 in 10.0 mi SW 9.2 mph - N/A   Clear
5:55 PM 61.5 °F - 35.8 °F 38% 30.09 in 10.0 mi SSW 5.8 mph - N/A   Clear
6:55 PM 58.1 °F - 34.7 °F 41% 30.10 in 10.0 mi SSE 4.6 mph - N/A   Clear
7:55 PM 54.1 °F - 34.5 °F 48% 30.11 in 10.0 mi SSE 3.5 mph - N/A   Clear
8:55 PM 52.9 °F - 35.2 °F 51% 30.10 in 10.0 mi South 4.6 mph - N/A   Clear
9:55 PM 51.1 °F - 35.6 °F 55% 30.10 in 10.0 mi South 4.6 mph - N/A   Clear
10:55 PM 49.6 °F - 36.1 °F 60% 30.09 in 10.0 mi South 3.5 mph - N/A   Clear
11:55 PM 48.0 °F - 36.9 °F 65% 30.08 in 10.0 mi South 6.9 mph - N/A   Partly Cloudy